Preview of NWS' New Version of Forecast
This preview is not operational and should not be used for support decisions.

Terminal Aerodrome Forecast (TAF)

Issued by National Weather Service (NWS)

                            
000
FTUS41 KGYX 220524
TAFRKD
TAF
KRKD 220524Z 2206/2306 VRB03KT 3/4SM BR OVC002
     FM220700 VRB03KT 1/4SM FG VV001
     FM221500 22006KT P6SM SCT045 BKN100
     FM230200 27003KT 6SM BR SCT003 BKN100=